Back to catalog

STARLINK-30535

AliveCommunicationsVLEO
NORAD 58001·PAYLOAD·🇺🇸 United States

Launched Oct 5, 2023 from Cape Canaveral Space Force Station

Loading…

Next Passes (next 24 hours)

TLE

FreshSource: CelesTrak SupGP

Epoch: Sep 14, 2026, 14:33 UTC

1 58001C 23153L   26257.60673611 -.00012744  00000+0 -46163-3 0  2579
2 58001  43.0009  79.7976 0001496 255.1038  78.3477 15.27581613    17

Track STARLINK-30535 in real time with AllMySat

Download on the App Store